Home > Weather > Taiyuan > Past weeks

Flag for China Past Weather in Taiyuan, Shanxi, China — Yesterday and Last 2 Weeks

Now
66 °F

Passing clouds.


Feels Like: 66 °F
Forecast: 60 / 85 °F
Wind: 3 mph from North

Location: Taiyuan Airport

Current Time: Jul 1, 2016 at 7:18:19 AM

Latest Report: Jul 1, 2016 at 6:30 AM


Visibility: N/A

Pressure: 29.74 "Hg (27.12 "Hg at 790m altitude)

Humidity: 78%

Dew Point: 59 °F

Location of TaiyuanLocation

Past Weather in Taiyuan — Graph

°F

Taiyuan Temperature Yesterday

Maximum temperature yesterday: 90 °F (at 12:30 PM)
Minimum temperature yesterday: 66 °F (at 5:30 AM)
Average temperature yesterday: 76 °F

High & Low Weather Summary for the Past Weeks

 TemperatureHumidityPressure
High97 °F (Jun 22, 2:30 PM)100% (Jun 20, 4:00 AM)30.01 "Hg (Jun 20, 4:00 AM)
Low55 °F (Jun 25, 5:00 AM)17% (Jun 24, 2:00 PM)29.53 "Hg (Jun 17, 4:30 PM)
Average75 °F55%29.76 "Hg
* Reported Jun 16 6:00 AM — Jul 1 6:00 AM, Taiyuan, Weather by CustomWeather, © 2016

Note: Actual official high and low records may vary slightly from our data, if they occured in-between our weather recording intervals... More about our weather records

Advertising

Taiyuan Weather History for the Previous 24 Hours

Scroll right to see more
 ConditionsComfort  
Time TempWeatherWind HumidityBarometerVisibility
6:00 AM
Fri, Jul 1
66 °FSunny.6 mph73%29.74 "Hg10 mi
5:30 AM66 °FPassing clouds.3 mph73%29.74 "HgN/A
5:00 AM64 °FPassing clouds.3 mph78%29.71 "HgN/A
4:30 AM64 °FPassing clouds.3 mph78%29.71 "HgN/A
4:00 AM64 °FClear.6 mph83%29.71 "Hg10 mi
3:30 AM64 °FClear.3 mph78%29.71 "Hg10 mi
3:00 AM66 °FClear.6 mph73%29.71 "Hg10 mi
2:30 AM64 °FClear.3 mph78%29.71 "Hg10 mi
2:00 AM64 °FClear.1 mph83%29.71 "Hg10 mi
1:30 AM66 °FClear.3 mph78%29.71 "Hg10 mi
1:00 AM66 °FClear.3 mph78%29.71 "Hg10 mi
12:30 AM66 °FClear.3 mph78%29.74 "Hg10 mi
12:00 AM66 °FClear.3 mph78%29.74 "Hg10 mi
11:30 PM
Thu, Jun 30
66 °FClear.6 mph78%29.74 "Hg10 mi
11:00 PM68 °FClear.3 mph73%29.71 "Hg10 mi
10:30 PM68 °FClear.3 mph78%29.74 "Hg10 mi
10:00 PM70 °FClear.3 mph73%29.74 "Hg10 mi
9:30 PM68 °FPassing clouds.3 mph78%29.74 "HgN/A
9:00 PM72 °FPassing clouds.1 mph69%29.74 "HgN/A
8:30 PM72 °FPassing clouds.1 mph69%29.71 "HgN/A
8:00 PM73 °FPassing clouds.3 mph65%29.71 "HgN/A
7:30 PM73 °FThunderstorms. Scattered clouds.3 mph65%29.71 "HgN/A
7:00 PM73 °FThunderstorms. Scattered clouds.10 mph65%29.71 "HgN/A
6:30 PM75 °FThunderstorms. Scattered clouds.3 mph57%29.74 "HgN/A
6:00 PM77 °FThunderstorms. Scattered clouds.3 mph51%29.71 "HgN/A
5:30 PM77 °FThunderstorms. Scattered clouds.8 mph54%29.68 "HgN/A
5:00 PM79 °FThunderstorms. Scattered clouds.13 mph45%29.68 "HgN/A
4:30 PM86 °FThunderstorms. Scattered clouds.6 mph27%29.65 "HgN/A
4:00 PM86 °FThunderstorms. Scattered clouds.6 mph25%29.62 "HgN/A
3:30 PM88 °FThunderstorms. Scattered clouds.8 mph21%29.62 "HgN/A
3:00 PM90 °FThunderstorms. Scattered clouds.15 mph17%29.65 "HgN/A
2:30 PM88 °FThunderstorms. Scattered clouds.8 mph27%29.65 "HgN/A
2:00 PM90 °FScattered clouds.10 mph26%29.65 "HgN/A
1:30 PM90 °FScattered clouds.10 mph26%29.68 "HgN/A
1:00 PM90 °FPassing clouds.10 mph27%29.68 "HgN/A
12:30 PM90 °FPassing clouds.10 mph31%29.71 "HgN/A
12:00 PM88 °FPassing clouds.10 mph35%29.74 "HgN/A
11:30 AM86 °FClear.8 mph35%29.74 "Hg5 mi
11:00 AM84 °FClear.6 mph37%29.74 "Hg5 mi
10:30 AM84 °FHaze.6 mph45%29.77 "Hg3 mi
10:00 AM81 °FHaze.6 mph58%29.77 "Hg2 mi
9:30 AM79 °FHaze.3 mph65%29.77 "Hg1 mi
9:00 AM77 °FHaze.6 mph65%29.77 "Hg1 mi
8:30 AM75 °FHaze.6 mph69%29.77 "Hg1 mi
8:00 AM75 °FHaze.3 mph65%29.77 "Hg2 mi
7:30 AM72 °FFog.3 mph78%29.77 "Hg1 mi
7:00 AM73 °FFog.1 mph74%29.77 "Hg1 mi
Weather by CustomWeather, © 2016

See weather overviewHow to use our weather pages